This is the latest recevied weather packets stored in our database for station/object KE5QKR. If no packets are shown the sender has not sent any weather packets the latest 10 day(s).
| Time | Temp. | Humidity | Pressure | Rain* | Wind** | Luminosity | Snow |
|---|---|---|---|---|---|---|---|
| 1777782385 | 13.89° C | 72% | 1018 hPa | 0 mm | - | 0 W/m² | - |
| 1777782081 | 13.89° C | 72% | 1017.6 hPa | 0 mm | - | 0 W/m² | - |
| 1777781777 | 13.89° C | 73% | 1017.7 hPa | 0 mm | - | 0 W/m² | - |
| 1777781475 | 13.89° C | 73% | 1017.9 hPa | 0 mm | - | 0 W/m² | - |
| 1777781172 | 13.89° C | 72% | 1017.9 hPa | 0 mm | - | 0 W/m² | - |
| 1777780870 | 13.89° C | 72% | 1017.9 hPa | 0 mm | - | 0 W/m² | - |
| 1777780566 | 13.89° C | 72% | 1017.6 hPa | 0 mm | - | 0 W/m² | - |
| 1777780264 | 13.89° C | 73% | 1017.6 hPa | 0 mm | - | 0 W/m² | - |
| 1777779961 | 13.89° C | 73% | 1017.6 hPa | 0 mm | - | 0 W/m² | - |
| 1777779658 | 13.89° C | 73% | 1017.9 hPa | 0 mm | - | 0 W/m² | - |
| 1777779355 | 13.89° C | 73% | 1017.6 hPa | 0 mm | - | 0 W/m² | - |
| 1777779053 | 13.89° C | 73% | 1017.7 hPa | 0 mm | - | 0 W/m² | - |
| 1777778751 | 13.33° C | 74% | 1017.4 hPa | 0 mm | - | 0 W/m² | - |
| 1777778449 | 12.22° C | 82% | 1017.5 hPa | 0 mm | - | 0 W/m² | - |
| 1777778146 | 11.67° C | 89% | 1017.5 hPa | 0 mm | - | 0 W/m² | - |
| 1777777843 | 11.67° C | 89% | 1017.6 hPa | 0 mm | - | 0 W/m² | - |
| 1777777539 | 11.67° C | 86% | 1017.4 hPa | 0 mm | - | 0 W/m² | - |
| 1777777237 | 11.67° C | 87% | 1017.4 hPa | 0 mm | - | 0 W/m² | - |
| 1777776933 | 11.67° C | 86% | 1017.7 hPa | 0 mm | - | 0 W/m² | - |
| 1777776631 | 12.22° C | 86% | 1017.4 hPa | 0 mm | - | 0 W/m² | - |
| 1777776327 | 12.78° C | 86% | 1017.3 hPa | 0 mm | - | 0 W/m² | - |
| 1777776025 | 12.78° C | 84% | 1017.3 hPa | 0 mm | - | 0 W/m² | - |
| 1777775721 | 13.33° C | 81% | 1017 hPa | 0 mm | - | 0 W/m² | - |
| 1777775419 | 14.44° C | 77% | 1016.9 hPa | 0 mm | - | 0 W/m² | - |
| 1777775114 | 15° C | 70% | 1016.6 hPa | 0 mm | - | 0 W/m² | - |
* Rain latest hour (hover to see other rain measurements)
** Current wind speed in m/s (hover to see current wind gust speed)